Year,Month,Day,Hour,Minute,Value (Times are PST for temperature in C)
2009,06,09,00,00,13.60
2009,06,09,00,01,13.60
2009,06,09,00,02,13.60
2009,06,09,00,03,13.60
2009,06,09,00,04,13.60
2009,06,09,00,05,13.60
2009,06,09,00,06,13.60
2009,06,09,00,07,13.60
2009,06,09,00,08,13.60
2009,06,09,00,09,13.60
2009,06,09,00,10,13.50
2009,06,09,00,11,13.50
2009,06,09,00,12,13.50
2009,06,09,00,13,13.50
2009,06,09,00,14,13.50
2009,06,09,00,15,13.50
2009,06,09,00,16,13.40
2009,06,09,00,17,13.40
2009,06,09,00,18,13.40
2009,06,09,00,19,13.40
2009,06,09,00,20,13.40
2009,06,09,00,21,13.40
2009,06,09,00,22,13.40
2009,06,09,00,23,13.40
2009,06,09,00,24,13.30
2009,06,09,00,25,13.30
2009,06,09,00,26,13.30
2009,06,09,00,27,13.30
2009,06,09,00,28,13.30
2009,06,09,00,29,13.30
2009,06,09,00,30,13.30
2009,06,09,00,31,13.30
2009,06,09,00,32,13.20
2009,06,09,00,33,13.20
2009,06,09,00,34,13.20
2009,06,09,00,35,13.20
2009,06,09,00,36,13.20
2009,06,09,00,37,13.20
2009,06,09,00,38,13.20
2009,06,09,00,39,13.10
2009,06,09,00,40,13.10
2009,06,09,00,41,13.10
2009,06,09,00,42,13.10
2009,06,09,00,43,13.10
2009,06,09,00,44,13.00
2009,06,09,00,45,13.00
2009,06,09,00,46,12.90
2009,06,09,00,47,12.90
2009,06,09,00,48,12.80
2009,06,09,00,49,12.80
2009,06,09,00,50,12.80
2009,06,09,00,51,12.80
2009,06,09,00,52,12.70
2009,06,09,00,53,12.70
2009,06,09,00,54,12.70
2009,06,09,00,55,12.70
2009,06,09,00,56,12.70
2009,06,09,00,57,12.60
2009,06,09,00,58,12.60
2009,06,09,00,59,12.60
2009,06,09,01,00,12.60
2009,06,09,01,01,12.50
2009,06,09,01,02,12.50
2009,06,09,01,03,12.40
2009,06,09,01,04,12.40
2009,06,09,01,05,12.40
2009,06,09,01,06,12.40
2009,06,09,01,07,12.40
2009,06,09,01,08,12.30
2009,06,09,01,09,12.30
2009,06,09,01,10,12.30
2009,06,09,01,11,12.30
2009,06,09,01,12,12.30
2009,06,09,01,13,12.30
2009,06,09,01,14,12.30
2009,06,09,01,15,12.20
2009,06,09,01,16,12.20
2009,06,09,01,17,12.20
2009,06,09,01,18,12.20
2009,06,09,01,19,12.20
2009,06,09,01,20,12.20
2009,06,09,01,21,12.20
2009,06,09,01,22,12.20
2009,06,09,01,23,12.20
2009,06,09,01,24,12.20
2009,06,09,01,25,12.20
2009,06,09,01,26,12.10
2009,06,09,01,27,12.10
2009,06,09,01,28,12.10
2009,06,09,01,29,12.10
2009,06,09,01,30,12.10
2009,06,09,01,31,12.00
2009,06,09,01,32,12.00
2009,06,09,01,33,12.00
2009,06,09,01,34,11.90
2009,06,09,01,35,11.90
2009,06,09,01,36,11.90
2009,06,09,01,37,11.90
2009,06,09,01,38,11.90
2009,06,09,01,39,11.90
2009,06,09,01,40,11.90
2009,06,09,01,41,11.80
2009,06,09,01,42,11.90
2009,06,09,01,43,11.90
2009,06,09,01,44,11.90
2009,06,09,01,45,11.90
2009,06,09,01,46,11.80
2009,06,09,01,47,11.80
2009,06,09,01,48,11.80
2009,06,09,01,49,11.80
2009,06,09,01,50,11.80
2009,06,09,01,51,11.80
2009,06,09,01,52,11.80
2009,06,09,01,53,11.80
2009,06,09,01,54,11.80
2009,06,09,01,55,11.80
2009,06,09,01,56,11.80
2009,06,09,01,57,11.80
2009,06,09,01,58,11.80
2009,06,09,01,59,11.80
2009,06,09,02,00,11.80
2009,06,09,02,01,11.80
2009,06,09,02,02,11.70
2009,06,09,02,03,11.70
2009,06,09,02,04,11.70
2009,06,09,02,05,11.80
2009,06,09,02,06,11.80
2009,06,09,02,07,11.80
2009,06,09,02,08,11.80
2009,06,09,02,09,11.80
2009,06,09,02,10,11.80
2009,06,09,02,11,11.80
2009,06,09,02,12,11.80
2009,06,09,02,13,11.80
2009,06,09,02,14,11.80
2009,06,09,02,15,11.70
2009,06,09,02,16,11.70
2009,06,09,02,17,11.70
2009,06,09,02,18,11.70
2009,06,09,02,19,11.70
2009,06,09,02,20,11.70
2009,06,09,02,21,11.70
2009,06,09,02,22,11.70
2009,06,09,02,23,11.70
2009,06,09,02,24,11.70
2009,06,09,02,25,11.70
2009,06,09,02,26,11.70
2009,06,09,02,27,11.70
2009,06,09,02,28,11.70
2009,06,09,02,29,11.70
2009,06,09,02,30,11.70
2009,06,09,02,31,11.70
2009,06,09,02,32,11.70
2009,06,09,02,33,11.70
2009,06,09,02,34,11.70
2009,06,09,02,35,11.70
2009,06,09,02,36,11.70
2009,06,09,02,37,11.70
2009,06,09,02,38,11.70
2009,06,09,02,39,11.70
2009,06,09,02,40,11.80
2009,06,09,02,41,11.80
2009,06,09,02,42,11.80
2009,06,09,02,43,11.80
2009,06,09,02,44,11.80
2009,06,09,02,45,11.80
2009,06,09,02,46,11.80
2009,06,09,02,47,11.80
2009,06,09,02,48,11.80
2009,06,09,02,49,11.80
2009,06,09,02,50,11.80
2009,06,09,02,51,11.80
2009,06,09,02,52,11.80
2009,06,09,02,53,11.80
2009,06,09,02,54,11.80
2009,06,09,02,55,11.80
2009,06,09,02,56,11.80
2009,06,09,02,57,11.80
2009,06,09,02,58,11.80
2009,06,09,02,59,11.80
2009,06,09,03,00,11.80
2009,06,09,03,01,11.80
2009,06,09,03,02,11.80
2009,06,09,03,03,11.80
2009,06,09,03,04,11.80
2009,06,09,03,05,11.80
2009,06,09,03,06,11.80
2009,06,09,03,07,11.80
2009,06,09,03,08,11.80
2009,06,09,03,09,11.80
2009,06,09,03,10,11.80
2009,06,09,03,11,11.80
2009,06,09,03,12,11.80
2009,06,09,03,13,11.70
2009,06,09,03,14,11.70
2009,06,09,03,15,11.70
2009,06,09,03,16,11.70
2009,06,09,03,17,11.70
2009,06,09,03,18,11.70
2009,06,09,03,19,11.70
2009,06,09,03,20,11.60
2009,06,09,03,21,11.60
2009,06,09,03,22,11.60
2009,06,09,03,23,11.60
2009,06,09,03,24,11.60
2009,06,09,03,25,11.60
2009,06,09,03,26,11.60
2009,06,09,03,27,11.60
2009,06,09,03,28,11.60
2009,06,09,03,29,11.60
2009,06,09,03,30,11.60
2009,06,09,03,31,11.60
2009,06,09,03,32,11.60
2009,06,09,03,33,11.60
2009,06,09,03,34,11.60
2009,06,09,03,35,11.50
2009,06,09,03,36,11.50
2009,06,09,03,37,11.50
2009,06,09,03,38,11.60
2009,06,09,03,39,11.60
2009,06,09,03,40,11.60
2009,06,09,03,41,11.60
2009,06,09,03,42,11.60
2009,06,09,03,43,11.70
2009,06,09,03,44,11.70
2009,06,09,03,45,11.70
2009,06,09,03,46,11.60
2009,06,09,03,47,11.60
2009,06,09,03,48,11.60
2009,06,09,03,49,11.60
2009,06,09,03,50,11.60
2009,06,09,03,51,11.60
2009,06,09,03,52,11.50
2009,06,09,03,53,11.50
2009,06,09,03,54,11.40
2009,06,09,03,55,11.40
2009,06,09,03,56,11.30
2009,06,09,03,57,11.30
2009,06,09,03,58,11.30
2009,06,09,03,59,11.30
2009,06,09,04,00,11.20
2009,06,09,04,01,11.20
2009,06,09,04,02,11.20
2009,06,09,04,03,11.20
2009,06,09,04,04,11.20
2009,06,09,04,05,11.10
2009,06,09,04,06,11.10
2009,06,09,04,07,11.10
2009,06,09,04,08,11.10
2009,06,09,04,09,11.10
2009,06,09,04,10,11.00
2009,06,09,04,11,11.00
2009,06,09,04,12,11.00
2009,06,09,04,13,10.90
2009,06,09,04,14,10.90
2009,06,09,04,15,10.90
2009,06,09,04,16,10.90
2009,06,09,04,17,10.90
2009,06,09,04,18,10.90
2009,06,09,04,19,10.80
2009,06,09,04,20,10.80
2009,06,09,04,21,10.80
2009,06,09,04,22,10.80
2009,06,09,04,23,10.80
2009,06,09,04,24,10.80
2009,06,09,04,25,10.80
2009,06,09,04,26,10.80
2009,06,09,04,27,10.80
2009,06,09,04,28,10.80
2009,06,09,04,29,10.80
2009,06,09,04,30,10.80
2009,06,09,04,31,10.80
2009,06,09,04,32,10.80
2009,06,09,04,33,10.70
2009,06,09,04,34,10.70
2009,06,09,04,35,10.70
2009,06,09,04,36,10.70
2009,06,09,04,37,10.70
2009,06,09,04,38,10.70
2009,06,09,04,39,10.70
2009,06,09,04,40,10.60
2009,06,09,04,41,10.60
2009,06,09,04,42,10.60
2009,06,09,04,43,10.60
2009,06,09,04,44,10.60
2009,06,09,04,45,10.50
2009,06,09,04,46,10.50
2009,06,09,04,47,10.50
2009,06,09,04,48,10.50
2009,06,09,04,49,10.40
2009,06,09,04,50,10.40
2009,06,09,04,51,10.40
2009,06,09,04,52,10.40
2009,06,09,04,53,10.40
2009,06,09,04,54,10.40
2009,06,09,04,55,10.40
2009,06,09,04,56,10.40
2009,06,09,04,57,10.40
2009,06,09,04,58,10.40
2009,06,09,04,59,10.40
2009,06,09,05,00,10.40
2009,06,09,05,01,10.40
2009,06,09,05,02,10.40
2009,06,09,05,03,10.40
2009,06,09,05,04,10.40
2009,06,09,05,05,10.40
2009,06,09,05,06,10.40
2009,06,09,05,07,10.40
2009,06,09,05,08,10.40
2009,06,09,05,09,10.40
2009,06,09,05,10,10.40
2009,06,09,05,11,10.40
2009,06,09,05,12,10.40
2009,06,09,05,13,10.40
2009,06,09,05,14,10.40
2009,06,09,05,15,10.40
2009,06,09,05,16,10.40
2009,06,09,05,17,10.40
2009,06,09,05,18,10.40
2009,06,09,05,19,10.40
2009,06,09,05,20,10.40
2009,06,09,05,21,10.40
2009,06,09,05,22,10.40
2009,06,09,05,23,10.40
2009,06,09,05,24,10.40
2009,06,09,05,25,10.40
2009,06,09,05,26,10.40
2009,06,09,05,27,10.40
2009,06,09,05,28,10.40
2009,06,09,05,29,10.30
2009,06,09,05,30,10.30
2009,06,09,05,31,10.30
2009,06,09,05,32,10.30
2009,06,09,05,33,10.30
2009,06,09,05,34,10.30
2009,06,09,05,35,10.30
2009,06,09,05,36,10.20
2009,06,09,05,37,10.20
2009,06,09,05,38,10.20
2009,06,09,05,39,10.20
2009,06,09,05,40,10.20
2009,06,09,05,41,10.20
2009,06,09,05,42,10.20
2009,06,09,05,43,10.20
2009,06,09,05,44,10.20
2009,06,09,05,45,10.20
2009,06,09,05,46,10.20
2009,06,09,05,47,10.20
2009,06,09,05,48,10.20
2009,06,09,05,49,10.20
2009,06,09,05,50,10.20
2009,06,09,05,51,10.30
2009,06,09,05,52,10.30
2009,06,09,05,53,10.30
2009,06,09,05,54,10.30
2009,06,09,05,55,10.30
2009,06,09,05,56,10.30
2009,06,09,05,57,10.30
2009,06,09,05,58,10.30
2009,06,09,05,59,10.30
2009,06,09,06,00,10.30
2009,06,09,06,01,10.30
2009,06,09,06,02,10.30
2009,06,09,06,03,10.30
2009,06,09,06,04,10.30
2009,06,09,06,05,10.30
2009,06,09,06,06,10.30
2009,06,09,06,07,10.40
2009,06,09,06,08,10.40
2009,06,09,06,09,10.40
2009,06,09,06,10,10.40
2009,06,09,06,11,10.40
2009,06,09,06,12,10.40
2009,06,09,06,13,10.40
2009,06,09,06,14,10.40
2009,06,09,06,15,10.50
2009,06,09,06,16,10.50
2009,06,09,06,17,10.50
2009,06,09,06,18,10.50
2009,06,09,06,19,10.50
2009,06,09,06,20,10.50
2009,06,09,06,21,10.50
2009,06,09,06,22,10.50
2009,06,09,06,23,10.50
2009,06,09,06,24,10.50
2009,06,09,06,25,10.50
2009,06,09,06,26,10.50
2009,06,09,06,27,10.50
2009,06,09,06,28,10.50
2009,06,09,06,29,10.50
2009,06,09,06,30,10.50
2009,06,09,06,31,10.60
2009,06,09,06,32,10.60
2009,06,09,06,33,10.70
2009,06,09,06,34,10.70
2009,06,09,06,35,10.70
2009,06,09,06,36,10.70
2009,06,09,06,37,10.70
2009,06,09,06,38,10.80
2009,06,09,06,39,10.80
2009,06,09,06,40,10.80
2009,06,09,06,41,10.80
2009,06,09,06,42,10.80
2009,06,09,06,43,10.80
2009,06,09,06,44,10.90
2009,06,09,06,45,10.90
2009,06,09,06,46,10.90
2009,06,09,06,47,10.90
2009,06,09,06,48,11.00
2009,06,09,06,49,11.00
2009,06,09,06,50,11.00
2009,06,09,06,51,11.10
2009,06,09,06,52,11.10
2009,06,09,06,53,11.10
2009,06,09,06,54,11.20
2009,06,09,06,55,11.20
2009,06,09,06,56,11.30
2009,06,09,06,57,11.30
2009,06,09,06,58,11.30
2009,06,09,06,59,11.40
2009,06,09,07,00,11.40
2009,06,09,07,01,11.50
2009,06,09,07,02,11.50
2009,06,09,07,03,11.60
2009,06,09,07,04,11.60
2009,06,09,07,05,11.60
2009,06,09,07,06,11.70
2009,06,09,07,07,11.70
2009,06,09,07,08,11.80
2009,06,09,07,09,11.80
2009,06,09,07,10,11.90
2009,06,09,07,11,12.00
2009,06,09,07,12,12.00
2009,06,09,07,13,12.10
2009,06,09,07,14,12.20
2009,06,09,07,15,12.20
2009,06,09,07,16,12.30
2009,06,09,07,17,12.30
2009,06,09,07,18,12.40
2009,06,09,07,19,12.40
2009,06,09,07,20,12.50
2009,06,09,07,21,12.60
2009,06,09,07,22,12.60
2009,06,09,07,23,12.70
2009,06,09,07,24,12.70
2009,06,09,07,25,12.80
2009,06,09,07,26,12.80
2009,06,09,07,27,12.90
2009,06,09,07,28,13.00
2009,06,09,07,29,13.10
2009,06,09,07,30,13.10
2009,06,09,07,31,13.20
2009,06,09,07,32,13.30
2009,06,09,07,33,13.30
2009,06,09,07,34,13.40
2009,06,09,07,35,13.40
2009,06,09,07,36,13.50
2009,06,09,07,37,13.50
2009,06,09,07,38,13.60
2009,06,09,07,39,13.70
2009,06,09,07,40,13.70
2009,06,09,07,41,13.70
2009,06,09,07,42,13.80
2009,06,09,07,43,13.90
2009,06,09,07,44,13.90
2009,06,09,07,45,14.00
2009,06,09,07,46,14.00
2009,06,09,07,47,14.10
2009,06,09,07,48,14.10
2009,06,09,07,49,14.20
2009,06,09,07,50,14.20
2009,06,09,07,51,14.30
2009,06,09,07,52,14.30
2009,06,09,07,53,14.40
2009,06,09,07,54,14.40
2009,06,09,07,55,14.40
2009,06,09,07,56,14.40
2009,06,09,07,57,14.40
2009,06,09,07,58,14.40
2009,06,09,07,59,14.40
2009,06,09,08,00,14.40
2009,06,09,08,01,14.40
2009,06,09,08,02,14.40
2009,06,09,08,03,14.40
2009,06,09,08,04,14.50
2009,06,09,08,05,14.50
2009,06,09,08,06,14.60
2009,06,09,08,07,14.60
2009,06,09,08,08,14.60
2009,06,09,08,09,14.70
2009,06,09,08,10,14.70
2009,06,09,08,11,14.80
2009,06,09,08,12,14.80
2009,06,09,08,13,14.80
2009,06,09,08,14,14.90
2009,06,09,08,15,14.90
2009,06,09,08,16,14.90
2009,06,09,08,17,14.90
2009,06,09,08,18,15.00
2009,06,09,08,19,15.00
2009,06,09,08,20,14.90
2009,06,09,08,21,14.90
2009,06,09,08,22,14.90
2009,06,09,08,23,14.90
2009,06,09,08,24,14.90
2009,06,09,08,25,14.90
2009,06,09,08,26,15.00
2009,06,09,08,27,15.00
2009,06,09,08,28,15.00
2009,06,09,08,29,15.00
2009,06,09,08,30,15.00
2009,06,09,08,31,15.10
2009,06,09,08,32,15.20
2009,06,09,08,33,15.20
2009,06,09,08,34,15.30
2009,06,09,08,35,15.30
2009,06,09,08,36,15.40
2009,06,09,08,37,15.40
2009,06,09,08,38,15.40
2009,06,09,08,39,15.40
2009,06,09,08,40,15.50
2009,06,09,08,41,15.50
2009,06,09,08,42,15.50
2009,06,09,08,43,15.50
2009,06,09,08,44,15.60
2009,06,09,08,45,15.60
2009,06,09,08,46,15.70
2009,06,09,08,47,15.70
2009,06,09,08,48,15.80
2009,06,09,08,49,15.80
2009,06,09,08,50,15.80
2009,06,09,08,51,15.90
2009,06,09,08,52,16.00
2009,06,09,08,53,16.00
2009,06,09,08,54,16.00
2009,06,09,08,55,16.00
2009,06,09,08,56,16.00
2009,06,09,08,57,16.00
2009,06,09,08,58,16.00
2009,06,09,08,59,16.00
2009,06,09,09,00,16.00
2009,06,09,09,01,16.00
2009,06,09,09,02,16.00
2009,06,09,09,03,16.00
2009,06,09,09,04,16.10
2009,06,09,09,05,16.10
2009,06,09,09,06,16.10
2009,06,09,09,07,16.10
2009,06,09,09,08,16.10
2009,06,09,09,09,16.10
2009,06,09,09,10,16.20
2009,06,09,09,11,16.20
2009,06,09,09,12,16.20
2009,06,09,09,13,16.30
2009,06,09,09,14,16.40
2009,06,09,09,15,16.50
2009,06,09,09,16,16.50
2009,06,09,09,17,16.60
2009,06,09,09,18,16.70
2009,06,09,09,19,16.70
2009,06,09,09,20,16.70
2009,06,09,09,21,16.80
2009,06,09,09,22,16.80
2009,06,09,09,23,16.80
2009,06,09,09,24,16.80
2009,06,09,09,25,16.80
2009,06,09,09,26,16.80
2009,06,09,09,27,16.80
2009,06,09,09,28,16.80
2009,06,09,09,29,16.80
2009,06,09,09,30,16.70
2009,06,09,09,31,16.70
2009,06,09,09,32,16.80
2009,06,09,09,33,16.80
2009,06,09,09,34,16.80
2009,06,09,09,35,16.80
2009,06,09,09,36,16.70
2009,06,09,09,37,16.70
2009,06,09,09,38,16.70
2009,06,09,09,39,16.80
2009,06,09,09,40,16.80
2009,06,09,09,41,16.90
2009,06,09,09,42,16.90
2009,06,09,09,43,16.90
2009,06,09,09,44,16.90
2009,06,09,09,45,17.00
2009,06,09,09,46,17.10
2009,06,09,09,47,17.20
2009,06,09,09,48,17.20
2009,06,09,09,49,17.30
2009,06,09,09,50,17.50
2009,06,09,09,51,17.50
2009,06,09,09,52,17.60
2009,06,09,09,53,17.70
2009,06,09,09,54,17.80
2009,06,09,09,55,17.80
2009,06,09,09,56,17.90
2009,06,09,09,57,18.00
2009,06,09,09,58,18.10
2009,06,09,09,59,18.20
2009,06,09,10,00,18.40
2009,06,09,10,01,18.50
2009,06,09,10,02,18.60
2009,06,09,10,03,18.70
2009,06,09,10,04,18.80
2009,06,09,10,05,18.90
2009,06,09,10,06,18.90
2009,06,09,10,07,18.90
2009,06,09,10,08,18.90
2009,06,09,10,09,18.90
2009,06,09,10,10,18.90
2009,06,09,10,11,19.00
2009,06,09,10,12,19.10
2009,06,09,10,13,19.10
2009,06,09,10,14,19.20
2009,06,09,10,15,19.30
2009,06,09,10,16,19.30
2009,06,09,10,17,19.30
2009,06,09,10,18,19.30
2009,06,09,10,19,19.30
2009,06,09,10,20,19.30
2009,06,09,10,21,19.30
2009,06,09,10,22,19.30
2009,06,09,10,23,19.40
2009,06,09,10,24,19.40
2009,06,09,10,25,19.40
2009,06,09,10,26,19.40
2009,06,09,10,27,19.40
2009,06,09,10,28,19.50
2009,06,09,10,29,19.50
2009,06,09,10,30,19.50
2009,06,09,10,31,19.50
2009,06,09,10,32,19.50
2009,06,09,10,33,19.60
2009,06,09,10,34,19.60
2009,06,09,10,35,19.70
2009,06,09,10,36,19.80
2009,06,09,10,37,19.90
2009,06,09,10,38,20.10
2009,06,09,10,39,20.20
2009,06,09,10,40,20.30
2009,06,09,10,41,20.30
2009,06,09,10,42,20.40
2009,06,09,10,43,20.40
2009,06,09,10,44,20.40
2009,06,09,10,45,20.50
2009,06,09,10,46,20.50
2009,06,09,10,47,20.60
2009,06,09,10,48,20.60
2009,06,09,10,49,20.60
2009,06,09,10,50,20.50
2009,06,09,10,51,20.40
2009,06,09,10,52,20.40
2009,06,09,10,53,20.40
2009,06,09,10,54,20.30
2009,06,09,10,55,20.30
2009,06,09,10,56,20.30
2009,06,09,10,57,20.30
2009,06,09,10,58,20.30
2009,06,09,10,59,20.30
2009,06,09,11,00,20.40
2009,06,09,11,01,20.40
2009,06,09,11,02,20.50
2009,06,09,11,03,20.50
2009,06,09,11,04,20.50
2009,06,09,11,05,20.50
2009,06,09,11,06,20.60
2009,06,09,11,07,20.60
2009,06,09,11,08,20.70
2009,06,09,11,09,20.70
2009,06,09,11,10,20.70
2009,06,09,11,11,20.70
2009,06,09,11,12,20.70
2009,06,09,11,13,20.80
2009,06,09,11,14,20.80
2009,06,09,11,15,20.90
2009,06,09,11,16,20.90
2009,06,09,11,17,20.90
2009,06,09,11,18,20.90
2009,06,09,11,19,20.90
2009,06,09,11,20,20.80
2009,06,09,11,21,20.80
2009,06,09,11,22,20.70
2009,06,09,11,23,20.70
2009,06,09,11,24,20.60
2009,06,09,11,25,20.60
2009,06,09,11,26,20.50
2009,06,09,11,27,20.50
2009,06,09,11,28,20.60
2009,06,09,11,29,20.60
2009,06,09,11,30,20.60
2009,06,09,11,31,20.70
2009,06,09,11,32,20.70
2009,06,09,11,33,20.70
2009,06,09,11,34,20.70
2009,06,09,11,35,20.70
2009,06,09,11,36,20.70
2009,06,09,11,37,20.70
2009,06,09,11,38,20.70
2009,06,09,11,39,20.80
2009,06,09,11,40,20.90
2009,06,09,11,41,21.00
2009,06,09,11,42,21.10
2009,06,09,11,43,21.20
2009,06,09,11,44,21.30
2009,06,09,11,45,21.40
2009,06,09,11,46,21.60
2009,06,09,11,47,21.70
2009,06,09,11,48,21.80
2009,06,09,11,49,21.90
2009,06,09,11,50,21.90
2009,06,09,11,51,21.90
2009,06,09,11,52,22.00
2009,06,09,11,53,22.00
2009,06,09,11,54,22.10
2009,06,09,11,55,22.20
2009,06,09,11,56,22.20
2009,06,09,11,57,22.20
2009,06,09,11,58,22.20
2009,06,09,11,59,22.30
2009,06,09,12,00,22.30
2009,06,09,12,01,22.30
2009,06,09,12,02,22.30
2009,06,09,12,03,22.20
2009,06,09,12,04,22.20
2009,06,09,12,05,22.10
2009,06,09,12,06,22.10
2009,06,09,12,07,22.10
2009,06,09,12,08,22.00
2009,06,09,12,09,22.00
2009,06,09,12,10,22.00
2009,06,09,12,11,21.90
2009,06,09,12,12,21.90
2009,06,09,12,13,21.80
2009,06,09,12,14,21.80
2009,06,09,12,15,21.80
2009,06,09,12,16,21.80
2009,06,09,12,17,21.90
2009,06,09,12,18,21.90
2009,06,09,12,19,22.00
2009,06,09,12,20,22.00
2009,06,09,12,21,22.10
2009,06,09,12,22,22.10
2009,06,09,12,23,22.20
2009,06,09,12,24,22.20
2009,06,09,12,25,22.20
2009,06,09,12,26,21.90
2009,06,09,12,27,21.40
2009,06,09,12,28,20.90
2009,06,09,12,29,20.50
2009,06,09,12,30,20.10
2009,06,09,12,31,19.70
2009,06,09,12,32,19.40
2009,06,09,12,33,19.20
2009,06,09,12,34,19.00
2009,06,09,12,35,18.80
2009,06,09,12,36,18.60
2009,06,09,12,37,18.50
2009,06,09,12,38,18.30
2009,06,09,12,39,18.30
2009,06,09,12,40,18.30
2009,06,09,12,41,18.30
2009,06,09,12,42,18.20
2009,06,09,12,43,18.10
2009,06,09,12,44,18.00
2009,06,09,12,45,18.00
2009,06,09,12,46,17.90
2009,06,09,12,47,17.90
2009,06,09,12,48,17.90
2009,06,09,12,49,17.80
2009,06,09,12,50,17.70
2009,06,09,12,51,17.60
2009,06,09,12,52,17.60
2009,06,09,12,53,17.50
2009,06,09,12,54,17.40
2009,06,09,12,55,17.40
2009,06,09,12,56,17.30
2009,06,09,12,57,17.30
2009,06,09,12,58,17.30
2009,06,09,12,59,17.30
2009,06,09,13,00,17.30
2009,06,09,13,01,17.30
2009,06,09,13,02,17.30
2009,06,09,13,03,17.40
2009,06,09,13,04,17.50
2009,06,09,13,05,17.50
2009,06,09,13,06,17.60
2009,06,09,13,07,17.70
2009,06,09,13,08,17.70
2009,06,09,13,09,17.80
2009,06,09,13,10,18.00
2009,06,09,13,11,18.10
2009,06,09,13,12,18.10
2009,06,09,13,13,18.10
2009,06,09,13,14,18.20
2009,06,09,13,15,18.20
2009,06,09,13,16,18.30
2009,06,09,13,17,18.40
2009,06,09,13,18,18.40
2009,06,09,13,19,18.50
2009,06,09,13,20,18.60
2009,06,09,13,21,18.60
2009,06,09,13,22,18.60
2009,06,09,13,23,18.70
2009,06,09,13,24,18.70
2009,06,09,13,25,18.80
2009,06,09,13,26,18.70
2009,06,09,13,27,18.80
2009,06,09,13,28,18.80
2009,06,09,13,29,18.90
2009,06,09,13,30,19.00
2009,06,09,13,31,19.00
2009,06,09,13,32,19.00
2009,06,09,13,33,19.10
2009,06,09,13,34,19.20
2009,06,09,13,35,19.20
2009,06,09,13,36,19.20
2009,06,09,13,37,19.30
2009,06,09,13,38,19.30
2009,06,09,13,39,19.20
2009,06,09,13,40,19.20
2009,06,09,13,41,19.20
2009,06,09,13,42,19.10
2009,06,09,13,43,19.10
2009,06,09,13,44,19.10
2009,06,09,13,45,19.10
2009,06,09,13,46,19.10
2009,06,09,13,47,19.30
2009,06,09,13,48,19.40
2009,06,09,13,49,19.50
2009,06,09,13,50,19.60
2009,06,09,13,51,19.60
2009,06,09,13,52,19.60
2009,06,09,13,53,19.50
2009,06,09,13,54,19.50
2009,06,09,13,55,19.50
2009,06,09,13,56,19.40
2009,06,09,13,57,19.40
2009,06,09,13,58,19.40
2009,06,09,13,59,19.40
2009,06,09,14,00,19.30
2009,06,09,14,01,19.30
2009,06,09,14,02,19.30
2009,06,09,14,03,19.30
2009,06,09,14,04,19.40
2009,06,09,14,05,19.50
2009,06,09,14,06,19.50
2009,06,09,14,07,19.60
2009,06,09,14,08,19.70
2009,06,09,14,09,19.70
2009,06,09,14,10,19.70
2009,06,09,14,11,19.70
2009,06,09,14,12,19.60
2009,06,09,14,13,19.60
2009,06,09,14,14,19.60
2009,06,09,14,15,19.50
2009,06,09,14,16,19.50
2009,06,09,14,17,19.60
2009,06,09,14,18,19.70
2009,06,09,14,19,19.70
2009,06,09,14,20,19.70
2009,06,09,14,21,19.70
2009,06,09,14,22,19.70
2009,06,09,14,23,19.60
2009,06,09,14,24,19.70
2009,06,09,14,25,19.70
2009,06,09,14,26,19.80
2009,06,09,14,27,19.80
2009,06,09,14,28,19.80
2009,06,09,14,29,19.80
2009,06,09,14,30,19.70
2009,06,09,14,31,19.70
2009,06,09,14,32,19.70
2009,06,09,14,33,19.70
2009,06,09,14,34,19.70
2009,06,09,14,35,19.70
2009,06,09,14,36,19.70
2009,06,09,14,37,19.70
2009,06,09,14,38,19.70
2009,06,09,14,39,19.80
2009,06,09,14,40,19.80
2009,06,09,14,41,19.80
2009,06,09,14,42,19.70
2009,06,09,14,43,19.70
2009,06,09,14,44,19.70
2009,06,09,14,45,19.70
2009,06,09,14,46,19.70
2009,06,09,14,47,19.70
2009,06,09,14,48,19.70
2009,06,09,14,49,19.70
2009,06,09,14,50,19.70
2009,06,09,14,51,19.70
2009,06,09,14,52,19.80
2009,06,09,14,53,19.80
2009,06,09,14,54,19.90
2009,06,09,14,55,19.90
2009,06,09,14,56,20.00
2009,06,09,14,57,20.10
2009,06,09,14,58,20.20
2009,06,09,14,59,20.10
2009,06,09,15,00,20.10
2009,06,09,15,01,20.00
2009,06,09,15,02,20.00
2009,06,09,15,03,20.00
2009,06,09,15,04,20.00
2009,06,09,15,05,20.20
2009,06,09,15,06,20.20
2009,06,09,15,07,20.20
2009,06,09,15,08,20.10
2009,06,09,15,09,20.00
2009,06,09,15,10,19.90
2009,06,09,15,11,19.80
2009,06,09,15,12,19.80
2009,06,09,15,13,19.80
2009,06,09,15,14,19.80
2009,06,09,15,15,19.70
2009,06,09,15,16,19.70
2009,06,09,15,17,19.70
2009,06,09,15,18,19.70
2009,06,09,15,19,19.70
2009,06,09,15,20,19.80
2009,06,09,15,21,19.80
2009,06,09,15,22,19.80
2009,06,09,15,23,19.80
2009,06,09,15,24,19.90
2009,06,09,15,25,19.90
2009,06,09,15,26,19.90
2009,06,09,15,27,19.90
2009,06,09,15,28,19.90
2009,06,09,15,29,19.90
2009,06,09,15,30,19.90
2009,06,09,15,31,19.80
2009,06,09,15,32,19.80
2009,06,09,15,33,19.80
2009,06,09,15,34,19.80
2009,06,09,15,35,19.80
2009,06,09,15,36,19.80
2009,06,09,15,37,19.80
2009,06,09,15,38,19.90
2009,06,09,15,39,19.90
2009,06,09,15,40,20.00
2009,06,09,15,41,20.00
2009,06,09,15,42,20.10
2009,06,09,15,43,20.10
2009,06,09,15,44,20.10
2009,06,09,15,45,20.10
2009,06,09,15,46,20.10
2009,06,09,15,47,20.10
2009,06,09,15,48,20.10
2009,06,09,15,49,20.10
2009,06,09,15,50,20.20
2009,06,09,15,51,20.20
2009,06,09,15,52,20.20
2009,06,09,15,53,20.20
2009,06,09,15,54,20.20
2009,06,09,15,55,20.20
2009,06,09,15,56,20.20
2009,06,09,15,57,20.20
2009,06,09,15,58,20.20
2009,06,09,15,59,20.20
2009,06,09,16,00,20.20
2009,06,09,16,01,20.10
2009,06,09,16,02,20.20
2009,06,09,16,03,20.20
2009,06,09,16,04,20.20
2009,06,09,16,05,20.20
2009,06,09,16,06,20.30
2009,06,09,16,07,20.30
2009,06,09,16,08,20.40
2009,06,09,16,09,20.40
2009,06,09,16,10,20.40
2009,06,09,16,11,20.40
2009,06,09,16,12,20.40
2009,06,09,16,13,20.40
2009,06,09,16,14,20.50
2009,06,09,16,15,20.50
2009,06,09,16,16,20.60
2009,06,09,16,17,20.60
2009,06,09,16,18,20.70
2009,06,09,16,19,20.60
2009,06,09,16,20,20.70
2009,06,09,16,21,20.70
2009,06,09,16,22,20.70
2009,06,09,16,23,20.70
2009,06,09,16,24,20.70
2009,06,09,16,25,20.70
2009,06,09,16,26,20.70
2009,06,09,16,27,20.80
2009,06,09,16,28,20.80
2009,06,09,16,29,20.90
2009,06,09,16,30,20.90
2009,06,09,16,31,20.80
2009,06,09,16,32,20.80
2009,06,09,16,33,20.70
2009,06,09,16,34,20.70
2009,06,09,16,35,20.70
2009,06,09,16,36,20.70
2009,06,09,16,37,20.80
2009,06,09,16,38,20.80
2009,06,09,16,39,20.80
2009,06,09,16,40,20.90
2009,06,09,16,41,20.90
2009,06,09,16,42,20.90
2009,06,09,16,43,20.90
2009,06,09,16,44,20.90
2009,06,09,16,45,20.90
2009,06,09,16,46,20.90
2009,06,09,16,47,20.90
2009,06,09,16,48,20.90
2009,06,09,16,49,20.90
2009,06,09,16,50,20.90
2009,06,09,16,51,20.90
2009,06,09,16,52,20.90
2009,06,09,16,53,21.00
2009,06,09,16,54,21.00
2009,06,09,16,55,21.00
2009,06,09,16,56,21.00
2009,06,09,16,57,21.00
2009,06,09,16,58,21.00
2009,06,09,16,59,21.00
2009,06,09,17,00,21.00
2009,06,09,17,01,21.00
2009,06,09,17,02,21.00
2009,06,09,17,03,20.90
2009,06,09,17,04,20.90
2009,06,09,17,05,21.00
2009,06,09,17,06,21.00
2009,06,09,17,07,21.00
2009,06,09,17,08,21.00
2009,06,09,17,09,21.00
2009,06,09,17,10,21.00
2009,06,09,17,11,21.00
2009,06,09,17,12,21.10
2009,06,09,17,13,21.10
2009,06,09,17,14,21.20
2009,06,09,17,15,21.20
2009,06,09,17,16,21.20
2009,06,09,17,17,21.20
2009,06,09,17,18,21.30
2009,06,09,17,19,21.40